Regional Weather Roundup
Issued by NWS

Home | Current Version | Previous Version | Text Only | Print | Product List | Glossary Off
Versions: 1 2 3 4 5 6 7 8 9 10 11 12 13 14 15 16 17 18 19 20 21 22 23 24 25 26 27 28 29 30 31 32 33 34 35 36 37 38 39 40 41 42 43 44 45 46 47 48 49 50

000
ASUS43 KDTX 270710
RWRMI
MICHIGAN HOURLY REGIONAL WEATHER ROUNDUP
NATIONAL WEATHER SERVICE DETROIT/PONTIAC MI
200 AM EST THU NOV 27 2014

NOTE: "FAIR" INDICATES FEW OR NO CLOUDS BELOW 12,000 FEET WITH NO
SIGNIFICANT WEATHER AND/OR OBSTRUCTION TO VISIBILITY.

MIZ047>049-052>055-059>063-066>070-074>076-081>083-270800-
SOUTHEAST LOWER MICHIGAN

CITY           SKY/WX    TMP DP  RH WIND       PRES   REMARKS
ADRIAN         CLOUDY    29  23  78 N7        30.10S
ALMA           CLOUDY    28  24  84 W6        30.12S
ANN ARBOR      MOCLDY    28  22  78 N7        30.08F
BAD AXE        FLURRIES  28  26  92 NW7       30.08F
DETROIT CITY   CLOUDY    33  22  63 N7        30.08S
DETROIT        FLURRIES  30  23  75 NW8       30.09S
FLINT          CLOUDY    30  23  75 NW7       30.10F
GROSSE ILE     CLOUDY    32  25  74 NW8       30.07S
HILLSDALE      FLURRIES  28  25  89 N7        30.08S
HOWELL         FLURRIES  28  24  88 NW7       30.08S

CITY           SKY/WX    TMP DP  RH WIND       PRES   REMARKS
JACKSON        CLOUDY    28  22  78 NW5       30.10S
LAMBERTVILLE   FLURRIES  32  27  80 N7        30.09S
LANSING        CLOUDY    27  23  85 W3        30.12S
LAPEER         NOT AVBL
MASON          CLOUDY    28  24  84 NW5       30.10F
MONROE         FLURRIES  30  27  86 CALM      30.07S
MT. CLEMENS    CLOUDY    30  26  84 NW8       30.06S
PONTIAC        CLOUDY    27  22  81 NW8       30.07S
PORT HOPE        N/A     32  23  69 NW6       30.06F
PORT HURON     CLOUDY    30  27  86 NW5       30.08S
TRI CITIES     CLOUDY    29  23  78 NW3       30.12F
YPSILANTI      CLOUDY    32  23  69 NW9       30.09S
$$
MIZ043>046-050>051-056>058-064>065-071>073-077>080-270800-
SOUTHWEST LOWER MICHIGAN

CITY           SKY/WX    TMP DP  RH WIND       PRES   REMARKS
BATTLE CREEK   CLOUDY    30  20  66 N5        30.12S
BENTON HARBOR  CLOUDY    27  24  89 CALM      30.16R
BIG RAPIDS     CLOUDY    28  26  95 CALM      30.11F
COLDWATER      FLURRIES  29  25  83 N6        30.11S
HOLLAND        CLOUDY    30  24  78 CALM      30.15S
GRAND RAPIDS   CLOUDY    28  21  75 CALM      30.13F
KALAMAZOO      CLOUDY    29  21  72 NW5       30.13S
MARSHALL       CLOUDY    27  22  82 CALM      30.11S
MUSKEGON       CLOUDY    30  22  72 CALM      30.16S
$$
MIZ016>042-270800-
NORTHERN LOWER MICHIGAN

CITY           SKY/WX    TMP DP  RH WIND       PRES   REMARKS
ALPENA         LGT SNOW  26  24  92 W6        30.10S FOG
BEAVER ISLAND  CLOUDY    28  22  79 NW5       30.14R
BELLAIRE       CLOUDY    27  26  95 CALM      30.12F
CADILLAC       CLOUDY    24  22  90 W5        30.08F
CHARLEVOIX     CLOUDY    29  25  86 N9        30.14F
FRANKFORT      CLOUDY    29  25  88 NW5       30.14S
GAYLORD        CLOUDY    23  21  92 CALM      30.08S
GRAYLING       CLOUDY    26  25  96 W3        30.10S
HARBOR SPRINGS CLOUDY    25  23  92 CALM      30.12S
HOUGHTON LAKE  CLOUDY    26  22  84 NW7       30.09F
MANISTEE       PTCLDY    25  19  80 W5        30.15S
OSCODA         CLOUDY    27  22  80 W7        30.07F
PELLSTON       CLOUDY    23  21  92 CALM      30.12F
TRAVERSE CITY  CLOUDY    27  22  81 SW3       30.12S
$$
MIZ007>008-015-270800-
EASTERN UPPER MICHIGAN

CITY           SKY/WX    TMP DP  RH WIND       PRES   REMARKS
MACKINAC ISLAN CLOUDY    28  25  90 N5        30.11S
NEWBERRY       LGT SNOW  21  20  97 W7        30.12S
S. S. MARIE    CLOUDY    24  21  88 SE5       30.13R
$$
MIZ004>006-011>014-085-270800-
CENTRAL UPPER MICHIGAN

CITY           SKY/WX    TMP DP  RH WIND       PRES   REMARKS
MANISTIQUE     CLOUDY    22  20  95 NW5       30.15R
ESCANABA       CLOUDY    25  19  80 N10       30.18R
MENOMINEE      CLOUDY    23  18  80 NW8       30.19R
SAWYER-GWINN   FLURRIES  19  14  82 N12G20    30.18R
$$
MIZ001>003-009>011-084-270800-
WESTERN UPPER MICHIGAN

CITY           SKY/WX    TMP DP  RH WIND       PRES   REMARKS
IRON MOUNTAIN  CLOUDY    18  11  74 NW13G23   30.19R
HOUGHTON       LGT SNOW  11   5  77 N12       30.25R WCI  -3
COPPER HARBOR    N/A     18  10  71 NE20G29   30.27R
IRONWOOD       CLOUDY    14  12  92 NW9       30.26R VSB 1/2
$$

ABBREVIATIONS USED IN REMARKS
   TC - TEMPERATURE IN CELSIUS
  WCI - WIND CHILL INDEX
   HX - HEAT INDEX
  VSB - VISIBILITY




USA.gov is the U.S. government's official web portal to all federal, state and local government web resources and services.